Regional Weather Roundup
Issued by NWS

Home | Current Version | Previous Version | Graphics & Text | Print | Product List | Glossary On
Versions: 1 2 3 4 5 6 7 8 9 10 11 12 13 14 15 16 17 18 19 20 21 22 23 24 25 26 27 28 29 30 31 32 33 34 35 36 37 38 39 40 41 42 43 44 45 46 47 48 49 50
347
ASUS45 KBOU 290807
RWRCO

WEATHER ROUNDUP FOR COLORADO
NATIONAL WEATHER SERVICE DENVER/BOULDER CO
200 AM MDT SAT APR 29 2017

NOTE: "FAIR" INDICATES FEW OR NO CLOUDS BELOW 12000 FEET WITH NO
SIGNIFICANT WEATHER AND/OR OBSTRUCTIONS TO VISIBILITY.

COZ001>005-013-030-031-290900-
...NORTHWEST COLORADO...

CITY           SKY/WX    TMP DP  RH WIND       PRES   REMARKS
CRAIG          CLOUDY    33  25  72 E3        29.94S
HAYDEN         FAIR      32  16  51 E9        29.94F WCI  24
MEEKER         CLOUDY    32  31  96 CALM      29.91S
MOUNT WERNER   NOT AVBL
STEAMBOAT SPGS CLOUDY    31  17  57 NE8G16    29.93F WCI  24
WALDEN           N/A     23  10  58 NE13      29.99F WCI  11
$$

COZ006>008-011-290900-
...WEST CENTRAL VALLEYS...

CITY           SKY/WX    TMP DP  RH WIND       PRES   REMARKS
GRAND JUNCTION CLOUDY    42  28  57 NE10      29.86S
MONTROSE       LGT SNOW  33  33 100 W3        29.86F FOG
EAGLE          FAIR      33  17  51 SE3       29.92S
RIFLE          FAIR      37  28  70 NW5       29.87F
DELTA          LGT RAIN  36  34  92 CALM      29.87S
NUCLA          CLOUDY    36  25  64 E3        29.88S
$$

COZ017>023-064>068-290900-
...SOUTHWEST COLORADO...

CITY           SKY/WX    TMP DP  RH WIND       PRES   REMARKS
DURANGO        FAIR      25  21  85 S3        29.82R
CORTEZ         LGT SNOW  32  31  96 CALM      29.85S FOG
PAGOSA SPRINGS CLOUDY    32  24  73 CALM      29.82S
TELLURIDE      LGT SNOW  23  22  95 CALM      29.83F
WOLF CREEK PAS CLOUDY    14  14 100 E7        29.85S WCI   4
$$

COZ009-010-012-014-032>034-037-058>063-290900-
...CENTRAL COLORADO...

CITY           SKY/WX    TMP DP  RH WIND       PRES   REMARKS
ASPEN          FAIR      27  23  85 CALM      29.84F
BUENA VISTA    CLOUDY    26  18  73 CALM      29.97R
COPPER MTN     LGT SNOW  14   9  79 MISG      29.88S
BERTHOUD PASS  SNOW       3  -8  60 SE23G35   29.90S VSB 1/2 WCI -19
COTTONWOOD PAS LGT SNOW  21  19  93 E17       29.93S VSB 3/4 WCI   7
GUNNISON       LGT SNOW  28  27  96 N5        29.83F VSB 1   WCI  23
KREMMLING      CLOUDY    32  21  64 E8        29.97F WCI  25
LEADVILLE      CLOUDY    16  12  84 S3        29.89S
MONARCH PASS   CLOUDY    10   7  85 E51G56    29.85F WCI -16
SALIDA         CLOUDY    28  26  92 NE3       30.06R
SUNLIGHT       CLOUDY    16  14  93 NE8       29.88F WCI   5
WILKERSON PASS CLOUDY    12   9  85 NE15G25   29.92R WCI  -4
$$

COZ069>075-290900-
...SAN LUIS VALLEY/SANGRE DE CRISTO MOUNTAINS...

CITY           SKY/WX    TMP DP  RH WIND       PRES   REMARKS
ALAMOSA        CLOUDY    30  21  69 E26G38    29.78F WCI  16
LA VETA PASS   HVY SNOW  18  14  86 MISG      29.99S VSB<1/4
SAGUACHE       CLOUDY    32  16  51 E21G28    29.82R WCI  20
$$

COZ035-036-038>040-290900-
...NORTHERN COLORADO FRONT RANGE...

CITY           SKY/WX    TMP DP  RH WIND       PRES   REMARKS
DENVER INTL AP LGT SNOW  29  27  92 NE16      30.06F FOG     WCI  17
DMNS CITY PARK   N/A     29  30 100 NE13G18   30.08F WCI  19
AURORA         LGT SNOW  28  28  99 NE9       30.07F FOG     WCI  19
FRONT RANGE AP LGT SNOW  32  32 100 N17       30.06F WCI  21
ERIE MUNI ARPT LGT SNOW  31  30  97 N12       30.09F WCI  22
BOULDER MUN AP LGT SNOW  30  30 100 N9        30.10F WCI  22
CENTENNIAL     SNOW      27  27 100 NE12      30.06F VSB 1/2 WCI  17
BROOMFIELD     LGT SNOW  30  30 100 N13G21    30.08F WCI  20
FORT COLLINS   FLURRIES  30  28  92 NE8       30.14F WCI  22
LONGMONT       LGT SNOW  33  31  92 N7        30.13F WCI  27
$$

COZ041-046-047-076>085-087-088-290900-
...PIKES PEAK/PALMER DIVIDE AND SOUTHERN FOOTHILLS...

CITY           SKY/WX    TMP DP  RH WIND       PRES   REMARKS
COLO. SPRINGS  LGT SNOW  30  25  81 N15G24    30.00F FOG     WCI  19
A. F. ACADEMY  LGT SNOW  26  24  92 N10       30.01S FOG     WCI  17
SCHRIEVER AFB  FLURRIES  27  25  93 N16       29.98F WCI  15
ELLICOTT       LGT SNOW N/A N/A N/A NE24G33   29.94F
FALCON         LGT SNOW  26  24  90 N18G24    29.99F WCI  13
FORT CARSON    LGT SNOW  29  26  88 N26G32    29.98S FOG     WCI  15
LIMON          LGT SNOW  29  28  96 N20G29    30.01S FOG     WCI  16
MONUMENT HILL  CLOUDY    23  21  93 N13       30.01F WCI  11
TRINIDAD       LGT SNOW  30  28  92 N15       29.98R VSB 3/4 WCI  19
$$

COZ042>045-048>051-090-091-290900-
...NORTHEAST COLORADO...

CITY           SKY/WX    TMP DP  RH WIND       PRES   REMARKS
GREELEY ARPT   MIX PCPN  32  29  88 NE7       30.14F WCI  26
AKRON          CLOUDY    31  28  89 NE16      30.06F WCI  20
BURLINGTON     NOT AVBL
WRAY           NOT AVBL
STERLING       CLOUDY    34  32  93 NE12      30.08F WCI  25
HOLYOKE        CLOUDY    37  34  87 N15       30.09F
FORT MORGAN    CLOUDY    32  30  92 N14G21    30.09F WCI  22
$$

COZ086-089-092>099-290900-
...SOUTHEAST COLORADO...

CITY           SKY/WX    TMP DP  RH WIND       PRES   REMARKS
PUEBLO         LGT SNOW  33  31  92 N13       30.02R VSB 3/4 WCI  24
LA JUNTA       LGT SNOW  33  31  92 NE13      29.97R VSB 1   WCI  24
LAMAR          LGT SNOW  33  31  92 NE13      29.95R VSB 3/4 WCI  24
SPRINGFIELD      N/A     31  30  96 N22G29    29.88R WCI  18
$$




USA.gov is the U.S. government's official web portal to all federal, state and local government web resources and services.